Details From CYZF - YELLOWKNIFE
To CYVQ - NORMAN WELLS
Flight Number -
Tags generated
Created
Modified
Stats Distance 367 nm / 680 km
Max Altitude 18,000 ft / 5,486 m
Waypoints 4
Social Downloads 0
Likes 0
Share VATSIM

Download

Looking for another format? Having issues loading an existing format? Contact us
Advertisement - Login to hide

Notes

Basic altitude profile: - Ascent Rate: 2000ft/min - Ascent Speed: 250kts - Cruise Altitude: 35000ft - Cruise Speed: 440kts - Descent Rate: 2000ft/min - Descent Speed: 250kts

Route

CYZF YZF 5E71 YVQ CYVQ

ID Type Via Altitude Latitude Longitude Leg Dist Tot Dist Heading (true) Name
O CYZF APT - 0 ft / 0 m 62.46567˚ -114.44142˚ - 0 nm - YELLOWKNIFE
YZF VOR - 0 ft / 0 m 62.46500˚ -114.43667˚ 0 nm 0 nm 107° / 107° YELLOWKNIFE VORTAC
YVQ VOR 5E71 (AWY-HI) 18,000 ft / 5,486 m 65.26497˚ -126.72411˚ 365 nm 365 nm 303° / 292° NORMAN WELLS VOR-DME
O CYVQ APT - 0 ft / 0 m 65.28162˚ -126.79822˚ 2 nm 367 nm 298° / 298° NORMAN WELLS

Altitude Profile

Advertisement - Login to hide

Weather


0- 5 10 15 20 25 30 35+ Temperature / ° C

Clouds and Precipitation
Forecast for 2017-12-18 18:00 UTC. Updated 2 hours ago

Ground ~20,000 ft ~40,000 ft Winds

CYZF

Details ICAO CYZF (YZF)
Name YELLOWKNIFE
Region Canada
Timezone America/Yellowknife (UTC-7.0)
Stats Elevation 675 ft / 206 m (AMSL)
Location 62.465666° -114.441417°
Runways 2
Magnetic Variation 16.582° E

METAR

CYZF 181500Z 33017KT 15SM -SN DRSN SCT060 M19/M22 A2961 RMK SC4 SLP051

Decode

TAF

TAF CYZF 181138Z 1812/1912 34015KT P6SM -SN SCT020 BKN060 FM181800 36012KT P6SM IC FEW030 SCT070 FM190600 VRB03KT P6SM -SN BKN020 RMK NXT FCST BY 181800Z

Decode

Departure Runways

ID Width Length Bearing (true) Bearing (mag) Surface Threshold Offset Overrun Length
09 150 ft / 46 m 4,902 ft / 1,494 m 116.52° 99.94° Asphalt 0 ft / 0 m 0 ft / 0 m
15 150 ft / 46 m 7,441 ft / 2,268 m 175.66° 159.08° Asphalt 0 ft / 0 m 0 ft / 0 m
27 150 ft / 46 m 4,902 ft / 1,494 m 296.54° 279.96° Asphalt 0 ft / 0 m 0 ft / 0 m
33 150 ft / 46 m 7,441 ft / 2,268 m 355.67° 339.09° Asphalt 0 ft / 0 m 0 ft / 0 m

CYVQ

Details ICAO CYVQ (YVQ)
Name NORMAN WELLS
Region Canada
Timezone America/Yellowknife (UTC-7.0)
Stats Elevation 238 ft / 73 m (AMSL)
Location 65.281616° -126.798222°
Runways 1
Magnetic Variation 21.028° E

METAR

CYVQ 181500Z VRB02KT 30SM IC FEW048 SCT230 M21/M24 A3006 RMK SC2CI2 SLP190

Decode

TAF

TAF CYVQ 181138Z 1812/1824 29012KT P6SM -SN SCT060 BKN090 RMK NXT FCST BY 181800Z

Decode

Destination Runways

ID Width Length Bearing (true) Bearing (mag) Surface Threshold Offset Overrun Length
09 150 ft / 46 m 5,977 ft / 1,822 m 118.74° 97.71° Asphalt 0 ft / 0 m 0 ft / 0 m
27 150 ft / 46 m 5,977 ft / 1,822 m 298.78° 277.75° Asphalt 0 ft / 0 m 0 ft / 0 m

Popular Alternatives